Bangkok, Thailand

4:50 PM ICT on December 06, 2016 (GMT +0700)
Bangkok International

Weather History for VTBD - January, 2014

Change the Weather History Date:

Friday, January 3, 2014

  Actual Average Record
Temperature  
Mean Temperature 78 °F -  
Max Temperature 91 °F 88 °F 96 °F (1998)
Min Temperature 66 °F 71 °F 64 °F (2005)
Cooling Degree Days 14    
Growing Degree Days 28 (Base 50)    
Moisture  
Dew Point 62 °F    
Average Humidity 60    
Maximum Humidity 94    
Minimum Humidity 22    
Precipitation  
Precipitation 0.00 in - - ()
Sea Level Pressure  
Sea Level Pressure 29.89 in    
Wind  
Wind Speed 2 mph ()    
Max Wind Speed 8 mph    
Max Gust Speed -    
Visibility 3.5 miles    
Events      
Averages and records for this station are not official NWS values.
T = Trace of Precipitation, MM = Missing Value Source: Averaged Metar Reports

Daily Weather History Graph

Daily Weather History Graph

Search for Another Location

Airport or City:

Trip Planner

Search our weather history database for the weather conditions in past years. The results will help you decide how hot, cold, wet, or windy it might be!

Date:

Astronomy

Jan. 03, 2014 Rise Set
Actual Time 6:42 AM ICT 6:01 PM ICT
Civil Twilight 6:18 AM ICT 6:24 PM ICT
Nautical Twilight 5:52 AM ICT 6:51 PM ICT
Astronomical Twilight 5:26 AM ICT 7:17 PM ICT
Moon 8:07 AM ICT (1/3) 8:06 PM ICT (1/3)
Length of Visible Light 12h 05m
Length of Day
11h 19m
Waxing Crescent, 5% of the Moon is Illuminated
Jan 3
Waxing Crescent
Jan 8
First Quarter
Jan 16
Full
Jan 24
Last Quarter
Jan 31
New

Hourly Weather History & Observations

Time (ICT) Temp. Heat Index Dew Point Humidity Pressure Visibility Wind Dir Wind Speed Gust Speed Precip Events Conditions
12:00 AM 73.4 °F - 64.4 °F 73% 29.92 in 3.1 mi Calm Calm - N/A   Mist
12:30 AM 69.8 °F - 64.4 °F 83% 29.92 in 3.1 mi Calm Calm - N/A   Mist
1:00 AM 70 °F - 64 °F 76% 29.92 in 3 mi Calm Calm - -   Mist
1:00 AM 69.8 °F - 64.4 °F 83% 29.92 in 2.8 mi Calm Calm - N/A   Mist
1:30 AM 69.8 °F - 64.4 °F 83% 29.92 in 2.8 mi Calm Calm - N/A   Mist
2:00 AM 69.8 °F - 64.4 °F 83% 29.89 in 2.8 mi Calm Calm - N/A   Mist
2:30 AM 69.8 °F - 64.4 °F 83% 29.89 in 2.8 mi Calm Calm - N/A   Mist
3:00 AM 69.8 °F - 64.4 °F 83% 29.89 in 2.5 mi Calm Calm - N/A   Mist
3:30 AM 69.8 °F - 64.4 °F 83% 29.89 in 2.5 mi Calm Calm - N/A   Mist
4:00 AM 68 °F - 64 °F 82% 29.89 in 2 mi WNW 2.3 mph - -   Mist
4:00 AM 68.0 °F - 64.4 °F 88% 29.89 in 2.5 mi WNW 2.3 mph - N/A   Mist
4:30 AM 68.0 °F - 64.4 °F 88% 29.89 in 2.5 mi WNW 3.5 mph - N/A   Mist
5:00 AM 68.0 °F - 64.4 °F 88% 29.89 in 2.5 mi NW 4.6 mph - N/A   Mist
5:30 AM 68.0 °F - 64.4 °F 88% 29.89 in 2.2 mi NW 3.5 mph - N/A   Mist
6:00 AM 68.0 °F - 64.4 °F 88% 29.89 in 2.2 mi NW 4.6 mph - N/A   Mist
6:30 AM 66.2 °F - 64.4 °F 94% 29.92 in 1.9 mi Calm Calm - N/A   Mist
7:00 AM 68 °F - 64 °F 85% 29.92 in 1 mi NNW 4.6 mph - -   Mist
7:00 AM 68.0 °F - 64.4 °F 88% 29.92 in 1.2 mi NNW 4.6 mph - N/A   Mist
7:30 AM 69.8 °F - 64.4 °F 83% 29.92 in 1.1 mi NNW 3.5 mph - N/A   Mist
8:00 AM 69.8 °F - 64.4 °F 83% 29.95 in 1.2 mi North 3.5 mph - N/A   Mist
8:30 AM 71.6 °F - 64.4 °F 78% 29.95 in 1.2 mi Calm Calm - N/A   Mist
9:00 AM 75.2 °F - 64.4 °F 69% 29.95 in 1.9 mi Calm Calm - N/A   Mist
9:30 AM 78.8 °F - 62.6 °F 57% 29.98 in - North - - N/A   Mist
10:00 AM 79 °F - 61 °F 44% 29.98 in 2 mi Calm Calm - -   Haze
10:00 AM 78.8 °F - 60.8 °F 54% 29.98 in 2.5 mi Calm Calm - N/A   Haze
10:30 AM 82.4 °F 82.9 °F 60.8 °F 48% 29.95 in 3.1 mi North 4.6 mph - N/A   Haze
11:00 AM 84.2 °F 85.0 °F 62.6 °F 48% 29.95 in 3.1 mi ESE 3.5 mph - N/A   Haze
11:30 AM 86.0 °F 86.1 °F 60.8 °F 43% 29.95 in 3.1 mi ENE 2.3 mph - N/A   Haze
12:00 PM 86.0 °F 86.1 °F 60.8 °F 43% 29.92 in 3.7 mi Calm Calm - N/A   Unknown
12:30 PM 87.8 °F 88.5 °F 62.6 °F 43% 29.89 in 3.7 mi North 5.8 mph - N/A   Unknown
1:00 PM 88 °F - 60 °F 29% 29.90 in 4 mi NNE 4.6 mph - -   Haze
1:00 PM 87.8 °F 87.6 °F 60.8 °F 40% 29.89 in 3.7 mi NNE 4.6 mph - N/A   Unknown
1:30 PM 87.8 °F 87.1 °F 59.0 °F 38% 29.86 in 4.3 mi ENE 5.8 mph - N/A   Unknown
2:00 PM 89.6 °F 88.9 °F 59.0 °F 36% 29.83 in 4.3 mi WNW 2.3 mph - N/A   Unknown
2:30 PM 89.6 °F 88.9 °F 59.0 °F 36% 29.83 in 4.3 mi NE 6.9 mph - N/A   Unknown
3:00 PM 91.4 °F 90.7 °F 59.0 °F 34% 29.83 in 4.3 mi East 2.3 mph - N/A   Unknown
3:30 PM 91.4 °F 90.7 °F 59.0 °F 34% 29.83 in 5.0 mi NE 5.8 mph - N/A   Unknown
4:00 PM 91 °F - 57 °F 22% 29.83 in 5 mi East 3.5 mph - -   Haze
4:00 PM 91.4 °F 89.9 °F 57.2 °F 31% 29.80 in 5.0 mi East 3.5 mph - N/A   Unknown
4:30 PM 91.4 °F 90.7 °F 59.0 °F 34% 29.80 in 5.0 mi NW 3.5 mph - N/A   Unknown
5:00 PM 89.6 °F 88.9 °F 59.0 °F 36% 29.80 in 5.0 mi North 8.1 mph - N/A   Unknown
5:30 PM 87.8 °F 86.5 °F 57.2 °F 35% 29.83 in 5.6 mi NW 5.8 mph - N/A   Unknown
6:00 PM 87.8 °F 86.1 °F 55.4 °F 33% 29.83 in 5.6 mi West 4.6 mph - N/A   Unknown
6:30 PM 86.0 °F 84.9 °F 57.2 °F 37% 29.83 in 5.6 mi NW 4.6 mph - N/A   Unknown
7:00 PM 85 °F - 58 °F 29% 29.86 in 5 mi NNE 4.6 mph - -   Haze
7:00 PM 84.2 °F 83.8 °F 59.0 °F 42% 29.86 in 5.0 mi NNE 4.6 mph - N/A   Unknown
7:30 PM 84.2 °F 84.4 °F 60.8 °F 45% 29.86 in 5.0 mi NNW 5.8 mph - N/A   Unknown
8:00 PM 82.4 °F 83.4 °F 62.6 °F 51% 29.89 in 5.0 mi NNW 2.3 mph - N/A   Unknown
8:30 PM 82.4 °F 83.9 °F 64.4 °F 54% 29.89 in 5.0 mi Variable 1.2 mph - N/A   Unknown
9:00 PM 77.0 °F - 62.6 °F 61% 29.89 in 5.0 mi Calm Calm - N/A   Unknown
9:30 PM 77.0 °F - 64.4 °F 65% 29.89 in 5.0 mi Calm Calm - N/A   Unknown
10:00 PM 77 °F - 54 °F 34% 29.88 in 5 mi Calm Calm - -   Haze
10:00 PM 77.0 °F - 64.4 °F 65% 29.89 in 5.0 mi Calm Calm - N/A   Unknown
10:30 PM 77.0 °F - 64.4 °F 65% 29.89 in 4.3 mi Calm Calm - N/A   Unknown
11:00 PM 75.2 °F - 66.2 °F 73% 29.89 in 4.3 mi SSE 3.5 mph - N/A   Unknown
11:30 PM 73.4 °F - 66.2 °F 78% 29.89 in 4.3 mi Calm Calm - N/A   Unknown